#timestamp,LO_Frequency,Hit,StdDev 
1711069215.8,286047005.9,N
1711069235.6,286047004.2,N
1711069255.4,286047002.9,N
1711069275.3,286047003.8,N
1711069295.1,286047001.6,N
1711069315.8,286047004.4,N
1711069335.7,286047001.9,N
1711069355.5,286047005.3,N
1711069375.4,286047006.1,N
1711069395.2,286047006.8,N
1711069415.0,286047004.8,N
1711069415.9,286047004.8,N
1711069435.8,286047006.8,N
1711069455.6,286047005.8,N
1711069475.5,286047003.5,N
1711069495.3,286047001.4,N
1711069515.1,286047003.2,N
1711069535.9,286047007.2,N
1711069555.7,286047004.6,N
1711069575.5,286047007.1,N
1711069595.4,286047007.2,N
1711069615.2,286047006.8,N
1711069635.1,286047008.5,N
1711069636.0,286047008.5,N
1711069655.8,286047010.1,N
1711069675.6,286047011.1,Y
1711069695.5,286047006.9,P
1711069715.3,286047003.6,P
1711069735.1,286047003.2,N
1711069755.9,286047005.2,Y
1711069775.7,286047001.0,P
1711069795.6,286047001.9,N
1711069815.4,286047003.2,N
1711069835.2,286047007.1,Y
1711069855.1,286047007.6,P
1711069856.0,286047007.6,P
1711069875.8,286047006.6,N
1711069895.7,286047009.3,Y
1711069915.5,286047003.3,P
1711069935.3,286047007.1,P
1711069955.2,286047009.1,P
1711069975.0,286047009.2,Y
1711069975.9,286047009.2,P
1711069995.8,286047003.8,N
1711070015.6,286047005.9,N
1711070035.4,286047005.6,N
1711070055.3,286047003.7,N
1711070075.1,286047003.6,N
1711070095.8,286047003.0,N
1711070115.7,286047001.7,N
1711070135.5,286047001.9,N
1711070155.4,286047004.4,N
1711070175.2,286047002.5,N
1711070195.0,286046999.5,N
1711070195.9,286046999.5,N
1711070215.8,286046997.9,N
1711070235.6,286046997.1,N
1711070255.4,286046999.4,N
1711070275.3,286047000.2,N
1711070295.1,286046998.2,N
1711070315.9,286046998.1,N
1711070335.7,286046998.1,N
1711070355.5,286047001.6,N
1711070375.4,286046999.7,N
1711070395.2,286047007.1,N
1711070415.1,286047012.0,Y
1711070416.0,286047012.0,P
1711070435.8,286047007.4,N
1711070455.6,286047005.1,N
1711070475.5,286047003.3,N
1711070495.3,286047001.6,N
1711070515.2,286047001.6,N
1711070535.9,286047000.2,N
1711070555.7,286047000.8,N
1711070575.6,286047002.4,N
1711070595.4,286046999.0,N
1711070615.2,286046999.1,N
1711070635.1,286047001.1,N
1711070636.0,286047001.1,N
1711070655.8,286046998.1,N
1711070675.7,286047002.6,N
1711070695.5,286047003.3,N
1711070715.3,286047003.6,N
1711070735.2,286047007.3,N
1711070755.0,286047003.0,N
1711070755.9,286047003.0,N
1711070775.8,286047002.6,N
1711070795.6,286047003.3,N
1711070815.4,286047004.7,N
1711070835.3,286047007.0,N
1711070855.1,286047007.4,N
1711070875.9,286047010.3,Y
1711070895.7,286047007.0,P
1711070915.5,286047004.9,N
1711070935.4,286047005.1,P
1711070955.2,286047003.2,N
1711070975.1,286047000.0,N
1711070976.0,286047000.0,N
1711070995.8,286046999.9,N
1711071015.6,286047002.3,N
1711071035.5,286047001.8,N
1711071055.3,286047003.1,N
1711071075.2,286047007.5,Y
1711071095.9,286047000.0,P
1711071115.7,286047004.4,P
1711071135.6,286047004.3,N
1711071155.4,286047004.7,N
1711071175.2,286046999.9,N
1711071195.1,286047001.6,N
1711071196.0,286047001.6,N
1711071215.8,286047005.1,N
1711071235.7,286047002.0,N
1711071255.5,286047000.6,N
1711071275.3,286046998.3,N
1711071295.2,286047001.8,N
1711071315.9,286047000.0,N
1711071335.7,286047004.0,N
1711071355.6,286047004.3,N
1711071375.4,286047004.8,N
1711071395.3,286047008.3,Y
1711071415.1,286047007.5,P
1711071416.0,286047007.5,N
1711071435.8,286047006.3,N
1711071455.7,286047006.2,N
1711071475.5,286047008.0,Y
1711071495.3,286047001.6,P
1711071515.2,286047004.2,N
1711071535.0,286047003.5,N
1711071535.9,286047003.5,N
1711071555.8,286047003.9,N
1711071575.6,286047001.3,N
1711071595.4,286047007.0,Y
1711071615.3,286047007.4,P
1711071635.1,286047008.9,P
1711071655.9,286047010.6,P
1711071675.7,286047006.9,N
1711071695.5,286047010.4,Y
1711071715.4,286047004.5,P
1711071735.2,286047004.6,P
1711071755.0,286047008.8,P
1711071755.9,286047008.8,Y
1711071775.8,286046999.9,P
1711071795.6,286047001.2,N
1711071815.5,286047002.6,N
1711071835.3,286047000.2,N
1711071855.1,286047000.8,N
1711071875.9,286046999.6,N
1711071895.7,286046997.8,N
1711071915.5,286046996.8,N
1711071935.4,286047001.2,N
1711071955.2,286046999.3,N
1711071975.1,286047006.0,N
1711071976.0,286047006.0,N
1711071995.8,286047007.5,N
1711072015.6,286047004.4,N
1711072035.5,286047001.2,N
1711072055.3,286046997.2,N
1711072075.1,286047002.4,N
1711072095.9,286046999.0,N
1711072115.7,286047000.4,N
1711072135.6,286047001.1,N
1711072155.4,286046999.9,N
1711072175.2,286047002.8,N
1711072195.1,286047002.7,N
1711072196.0,286047002.7,N
1711072215.8,286046999.7,N
1711072235.7,286047002.2,N
1711072255.5,286047005.2,N
1711072275.3,286047008.3,Y
1711072295.2,286047006.5,P
1711072315.0,286047005.9,N
1711072315.9,286047005.9,N
1711072335.8,286047002.0,N
1711072355.6,286047001.0,N
1711072375.4,286047001.0,N
1711072395.3,286046998.7,N
1711072415.1,286046999.4,N
1711072435.8,286046997.3,N
1711072455.7,286046996.0,N
1711072475.5,286046991.1,N
1711072495.4,286046991.5,N
1711072515.2,286046991.0,N
1711072535.0,286046990.5,N
1711072535.9,286046990.5,N
1711072555.8,286046994.3,N
1711072575.6,286046990.5,N
1711072595.5,286046989.9,N
1711072615.3,286046988.7,N
1711072635.1,286046992.5,N
1711072655.9,286046996.2,N
1711072675.7,286047001.0,N
1711072695.6,286046999.6,N
1711072715.4,286047000.5,N
1711072735.2,286047001.7,N
1711072755.1,286047004.1,N
1711072756.0,286047004.1,N
1711072775.8,286046998.2,N
1711072795.7,286046998.7,N
